sat.trackr.live / text

‹ back to catalog

UNKNOWN

NORAD 82448

UNKNOWN UNKNOWN UNKNOWN

§ Identity

Operator
Country
Launch date
Launch site
Launch vehicle
Mass (kg)
RCS (m²)

External: N2YO · Heavens-Above

§ Orbital elements

Epoch: 2026-09-18T08:51:23.075712Z

Period
95.56 min
Inclination
85.8723°
Eccentricity
0.0003073
Mean motion
15.06980559 rev/d
Perigee alt
543.3 km
Apogee alt
547.6 km
Semi-major
6,923.6 km
B*
2.8182e-4
RAAN
49.4232°
Arg perigee
28.7666°
Mean anomaly
331.3738°
Rev number
47,911

§ Raw data

UNKNOWN1 82448U          26261.36901708  .00004247  00000+0  28182-3 0  99972 82448  85.8723  49.4232 0003073  28.7666 331.3738 15.06980559479111

JSON: /api/v1/satellites/82448 · /tle

For live sub-satellite position, see the globe view (requires WebGL).

§ Visibility from observer

Set your observer location to see the next 7 days of passes ≥ 10°. The values pass through the URL so the page stays shareable.

No JS? Fill the form by hand. The geolocation button needs JavaScript.